Location: Newark
(46.8000°N, 92.1000°W)
Time: 12:17:19
(UTC+00:00)

ISS - Visible Passes

Search period start: 24 September 2020 00:00
Search period end: 04 October 2020 00:00
Orbit: 419 x 420 km, 51.6° (Epoch: 24 September)

Date Brightness Start Highest point End Pass type
(mag) Time Alt. Az. Time Alt. Az. Time Alt. Az.
24 Sep -3.0 01:06:11 10° W 01:09:28 49° NNW 01:12:15 14° ENE visible
24 Sep -1.3 02:43:35 10° WNW 02:45:13 23° NW 02:45:13 23° NW visible
25 Sep -2.5 01:56:05 10° WNW 01:59:13 34° N 01:59:38 33° NNE visible
26 Sep -2.5 01:08:32 10° WNW 01:11:42 36° N 01:14:00 16° NE visible
26 Sep -1.0 02:45:44 10° WNW 02:46:58 20° NW 02:46:58 20° NW visible
27 Sep -2.6 01:58:17 10° WNW 02:01:19 37° N 02:01:19 37° N visible
28 Sep -2.6 01:10:47 10° WNW 01:13:56 35° N 01:15:39 21° ENE visible
28 Sep -0.8 02:47:43 10° WNW 02:48:37 17° WNW 02:48:37 17° WNW visible
29 Sep -2.5 00:23:15 10° WNW 00:26:23 34° N 00:29:31 10° ENE visible
29 Sep -2.8 02:00:18 10° WNW 02:02:57 44° NNW 02:02:57 44° NNW visible
30 Sep -3.0 01:12:51 10° WNW 01:16:07 43° NNE 01:17:18 30° ENE visible
30 Sep -0.5 02:49:41 10° WNW 02:50:16 14° WNW 02:50:16 14° WNW visible
01 Oct -2.8 00:25:22 10° WNW 00:28:33 37° N 00:31:40 10° ENE visible
01 Oct -2.6 02:02:12 10° WNW 02:04:38 44° WNW 02:04:38 44° WNW visible
02 Oct -3.8 01:14:44 10° WNW 01:18:07 72° NNE 01:19:02 44° E visible
02 Oct -0.3 02:51:58 10° W 02:52:00 10° W 02:52:00 10° W visible
03 Oct -3.4 00:27:17 10° WNW 00:30:36 54° NNE 00:33:29 13° E visible
03 Oct -1.9 02:04:14 10° WNW 02:06:27 29° WSW 02:06:27 29° WSW visible
